period_start,C,m1,H,J0,J1,J2,J3,J4,J5,JA,JB,JC,JD,JJ,JK,JN,#
2015-01-18 00:04:07,0.27,3.10,0.00,23.71,27.91,30.59,4.86,27.27,1019.55,2027.79,2323.10,2525.16,2738.57,350.79,348.47,23.46,0000 0000 0000 0000 000000
2015-01-18 00:09:08,0.24,3.11,0.00,23.70,27.91,30.58,4.80,27.16,1019.56,2027.65,2320.75,2523.47,2736.74,350.16,348.03,23.49,0000 0000 0000 0000 000000
2015-01-18 00:14:09,0.21,3.12,0.00,23.70,27.90,30.59,4.77,27.15,1019.57,2027.25,2318.38,2521.78,2734.92,349.87,347.77,23.52,0000 0000 0000 0000 000000
2015-01-18 00:19:11,0.28,3.13,0.00,23.71,27.90,30.57,4.76,27.27,1019.56,2027.40,2316.23,2520.33,2733.30,349.80,347.58,23.55,0000 0000 0000 0000 000000
2015-01-18 00:24:12,0.25,3.13,0.00,23.72,27.90,30.58,4.80,27.10,1019.56,2027.27,2314.08,2518.78,2731.66,350.29,348.13,23.58,0000 0000 0000 0000 000000
2015-01-18 00:29:13,0.26,3.14,0.00,23.70,27.90,30.56,4.80,27.23,1019.56,2027.24,2311.82,2517.27,2729.95,350.41,348.29,23.61,0000 0000 0000 0000 000000
2015-01-18 00:34:14,0.28,3.15,0.00,23.69,27.90,30.55,4.81,27.13,1019.55,2027.31,2309.62,2515.74,2728.44,350.28,347.97,23.64,0000 0000 0000 0000 000000
2015-01-18 00:39:16,0.24,3.16,0.00,23.67,27.91,30.54,4.79,27.27,1019.55,2027.30,2307.43,2514.23,2726.72,350.06,347.93,23.66,0000 0000 0000 0000 000000
2015-01-18 00:44:17,0.24,3.16,0.00,23.67,27.91,30.57,4.79,27.25,1019.54,2027.10,2305.25,2512.66,2725.02,349.96,347.91,23.69,0000 0000 0000 0000 000000
2015-01-18 00:49:18,0.26,3.17,0.00,23.70,27.91,30.56,4.78,27.31,1019.54,2027.14,2302.98,2511.14,2723.43,349.44,347.42,23.72,0000 0000 0000 0000 000000
2015-01-18 00:54:19,0.26,3.18,0.00,23.68,27.91,30.56,4.79,27.33,1019.54,2027.13,2300.82,2509.61,2721.77,349.54,347.44,23.75,0000 0000 0000 0000 000000
2015-01-18 00:59:20,0.28,3.19,0.00,23.70,27.92,30.58,4.77,27.29,1019.55,2027.10,2298.41,2508.00,2720.07,349.36,347.24,23.78,0000 0000 0000 0000 000000
2015-01-18 01:04:22,0.28,3.19,0.00,23.71,27.92,30.58,4.77,27.18,1019.54,2027.13,2296.08,2506.52,2718.38,350.14,347.99,23.81,0000 0000 0000 0000 000000
2015-01-18 01:09:23,0.31,3.20,0.00,23.73,27.92,30.56,4.80,27.23,1019.51,2027.31,2293.81,2504.92,2716.69,349.80,347.69,23.84,0000 0000 0000 0000 000000
2015-01-18 01:14:24,0.24,3.21,0.00,23.71,27.92,30.56,4.82,27.27,1019.43,2027.26,2291.50,2503.43,2715.05,349.89,347.42,23.87,0000 0000 0000 0000 000000
2015-01-18 01:19:26,0.27,3.22,0.00,23.68,27.92,30.58,4.78,27.19,1019.33,2027.15,2289.14,2501.75,2713.27,349.52,347.41,23.90,0000 0000 0000 0000 000000
2015-01-18 01:24:27,0.26,3.23,0.00,23.69,27.92,30.57,4.75,27.30,1019.07,2027.06,2286.74,2500.09,2711.49,349.44,347.16,23.93,0000 0000 0000 0000 000000
2015-01-18 01:29:28,0.30,3.23,0.00,23.70,27.92,30.58,4.72,27.38,1019.07,2027.11,2284.39,2498.49,2709.76,349.61,347.50,23.96,0000 0000 0000 0000 000000
2015-01-18 01:34:29,0.28,3.24,0.00,23.69,27.92,30.57,4.81,27.41,1019.08,2027.10,2282.01,2496.80,2707.97,349.73,347.57,23.99,0000 0000 0000 0000 000000
2015-01-18 01:39:30,0.27,3.25,0.00,23.67,27.92,30.56,4.74,27.28,1019.08,2027.07,2279.51,2495.28,2706.17,349.44,347.12,24.02,0000 0000 0000 0000 000000
2015-01-18 01:44:32,0.29,3.26,0.00,23.67,27.92,30.57,4.77,27.15,1019.07,2027.04,2277.20,2493.68,2704.38,350.11,347.97,24.05,0000 0000 0000 0000 000000
2015-01-18 01:49:33,0.27,3.27,0.00,23.70,27.92,30.57,4.82,27.06,1019.14,2027.06,2274.78,2492.11,2702.65,350.31,348.01,24.07,0000 0000 0000 0000 000000
2015-01-18 01:54:34,0.28,3.28,0.00,23.72,27.92,30.56,4.78,27.23,1019.08,2027.06,2272.35,2490.51,2700.88,349.81,347.68,24.10,0000 0000 0000 0000 000000
2015-01-18 01:59:36,0.31,3.29,0.00,23.72,27.92,30.58,4.75,27.11,1019.10,2027.07,2269.86,2488.77,2699.12,349.85,347.43,24.13,0000 0000 0000 0000 000000
2015-01-18 02:04:37,0.28,3.29,0.00,23.72,27.92,30.59,4.88,27.18,1019.07,2027.07,2267.32,2487.14,2697.30,350.79,348.46,24.16,0000 0000 0000 0000 000000
2015-01-18 02:09:38,0.31,3.30,0.00,23.75,27.92,30.58,4.83,27.17,1019.07,2027.08,2264.78,2485.39,2695.43,349.78,347.31,24.19,0000 0000 0000 0000 000000
2015-01-18 02:14:40,0.31,3.31,0.00,23.73,27.92,30.57,4.81,27.10,1019.06,2027.03,2262.32,2483.64,2693.51,350.24,347.95,24.22,0000 0000 0000 0000 000000
2015-01-18 02:19:41,0.31,3.32,0.00,23.67,27.92,30.58,4.75,27.12,1019.06,2027.02,2259.75,2481.89,2691.66,349.56,347.33,24.25,0000 0000 0000 0000 000000
2015-01-18 02:24:43,0.29,3.33,0.00,23.68,27.92,30.57,4.76,27.12,1019.07,2027.03,2257.21,2480.24,2689.86,349.91,347.66,24.28,0000 0000 0000 0000 000000
2015-01-18 02:29:44,0.33,3.34,0.00,23.68,27.92,30.58,4.83,27.16,1019.06,2027.02,2254.50,2478.44,2687.92,350.32,347.75,24.31,0000 0000 0000 0000 000000
2015-01-18 02:34:45,0.32,3.35,0.00,23.70,27.91,30.57,4.87,27.18,1019.06,2027.00,2251.81,2476.63,2686.06,350.75,348.56,24.34,0000 0000 0000 0000 000000
2015-01-18 02:39:46,0.34,3.36,0.00,23.67,27.91,30.59,4.78,27.38,1019.05,2027.04,2249.06,2474.80,2684.17,349.59,347.33,24.37,0000 0000 0000 0000 000000
2015-01-18 02:44:48,0.32,3.37,0.00,23.67,27.90,30.58,4.77,27.29,1019.06,2027.05,2246.29,2473.05,2682.26,349.31,347.00,24.40,0000 0000 0000 0000 000000
2015-01-18 02:49:49,0.31,3.38,0.00,23.66,27.91,30.57,4.74,27.14,1019.06,2027.05,2243.60,2471.32,2680.38,349.73,347.43,24.43,0000 0000 0000 0000 000000
2015-01-18 02:54:50,0.32,3.39,0.00,23.68,27.91,30.58,4.84,27.26,1019.06,2027.05,2240.97,2469.53,2678.48,349.99,347.79,24.46,0000 0000 0000 0000 000000
2015-01-18 02:59:51,0.31,3.40,0.00,23.68,27.90,30.59,4.76,27.18,1019.06,2027.05,2238.48,2467.76,2676.57,349.40,347.14,24.48,0000 0000 0000 0000 000000
2015-01-18 03:04:52,0.30,3.41,0.00,23.69,27.90,30.60,4.74,27.23,1019.06,2027.03,2235.93,2466.07,2674.70,349.40,347.17,24.51,0000 0000 0000 0000 000000
2015-01-18 03:09:54,0.33,3.41,0.00,23.68,27.90,30.58,4.72,27.19,1019.06,2027.03,2233.25,2464.33,2672.86,349.45,347.07,24.54,0000 0000 0000 0000 000000
2015-01-18 03:14:55,0.30,3.42,0.00,23.65,27.90,30.57,4.80,27.16,1019.05,2027.02,2230.84,2462.61,2671.03,349.65,347.38,24.57,0000 0000 0000 0000 000000
2015-01-18 03:19:56,0.30,3.43,0.00,23.71,27.90,30.55,4.79,27.26,1018.92,2027.03,2228.28,2460.92,2669.30,350.12,347.76,24.60,0000 0000 0000 0000 000000
2015-01-18 03:24:58,0.30,3.44,0.00,23.70,27.90,30.57,4.74,27.28,1018.97,2027.06,2225.83,2459.32,2667.56,349.71,347.38,24.63,0000 0000 0000 0000 000000
2015-01-18 03:29:59,0.30,3.45,0.00,23.69,27.90,30.58,4.73,27.23,1019.04,2027.01,2223.37,2457.58,2665.72,349.55,347.19,24.66,0000 0000 0000 0000 000000
2015-01-18 03:35:00,0.29,3.46,0.00,23.67,27.90,30.59,4.75,27.26,1019.06,2027.05,2221.09,2455.96,2663.97,350.00,347.96,24.69,0000 0000 0000 0000 000000
2015-01-18 03:40:01,0.27,3.47,0.00,23.67,27.90,30.55,4.78,27.34,1019.08,2027.03,2218.85,2454.43,2662.29,349.74,347.44,24.72,0000 0000 0000 0000 000000
2015-01-18 03:45:02,0.27,3.48,0.00,23.65,27.90,30.59,4.77,27.17,1019.06,2027.03,2216.64,2452.91,2660.60,350.16,347.79,24.75,0000 0000 0000 0000 000000
2015-01-18 03:50:04,0.26,3.48,0.00,23.64,27.90,30.61,4.76,27.10,1019.07,2027.02,2214.55,2451.46,2658.91,350.03,347.69,24.78,0000 0000 0000 0000 000000
2015-01-18 03:55:05,0.27,3.49,0.00,23.68,27.90,30.58,4.81,27.27,1019.07,2027.02,2212.44,2449.95,2657.41,349.95,347.65,24.81,0000 0000 0000 0000 000000
2015-01-18 04:00:06,0.25,3.50,0.00,23.65,27.90,30.58,4.75,27.22,1019.09,2027.03,2210.52,2448.59,2655.90,350.33,348.02,24.84,0000 0000 0000 0000 000000
2015-01-18 04:05:08,0.26,3.51,0.00,23.66,27.90,30.58,4.74,27.23,1019.08,2027.03,2208.35,2447.16,2654.35,349.48,347.16,24.87,0000 0000 0000 0000 000000
2015-01-18 04:10:09,0.25,3.51,0.00,23.67,27.90,30.56,4.75,27.27,1019.07,2027.06,2206.37,2445.81,2652.88,349.64,347.53,24.89,0000 0000 0000 0000 000000
2015-01-18 04:15:11,0.25,3.52,0.00,23.67,27.90,30.57,4.85,27.22,1019.07,2027.05,2204.32,2444.46,2651.44,350.51,348.24,24.92,0000 0000 0000 0000 000000
2015-01-18 04:20:12,0.23,3.53,0.00,23.67,27.90,30.57,4.72,27.17,1019.09,2027.11,2202.50,2443.14,2649.95,349.50,347.44,24.95,0000 0000 0000 0000 000000
2015-01-18 04:25:13,0.26,3.54,0.00,23.70,27.90,30.57,4.78,27.19,1019.08,2027.06,2200.67,2441.75,2648.54,350.22,347.96,24.98,0000 0000 0000 0000 000000
2015-01-18 04:30:14,0.23,3.54,0.00,23.66,27.90,30.59,4.77,27.26,1019.16,2027.08,2198.82,2440.51,2647.05,349.41,347.16,25.01,0000 0000 0000 0000 000000
2015-01-18 04:35:15,0.22,3.55,0.00,23.64,27.90,30.59,4.85,27.52,1019.06,2027.04,2196.95,2439.22,2645.68,350.81,348.40,25.04,0000 0000 0000 0000 000000
2015-01-18 04:40:17,0.25,3.56,0.00,23.63,27.90,30.57,4.74,27.41,1019.06,2027.03,2195.07,2437.81,2644.26,349.51,347.28,25.07,0000 0000 0000 0000 000000
2015-01-18 04:45:18,0.22,3.57,0.00,23.69,27.90,30.55,4.79,27.23,1019.09,2027.02,2193.32,2436.54,2642.81,350.01,347.60,25.10,0000 0000 0000 0000 000000
2015-01-18 04:50:20,0.22,3.57,0.00,23.67,27.90,30.58,4.73,27.27,1019.12,2027.02,2191.54,2435.37,2641.48,349.38,347.40,25.13,0000 0000 0000 0000 000000
2015-01-18 04:55:21,0.23,3.58,0.00,23.66,27.90,30.58,4.73,27.23,1019.09,2027.03,2189.81,2434.03,2640.17,350.01,347.64,25.16,0000 0000 0000 0000 000000
2015-01-18 05:00:22,0.23,3.59,0.00,23.65,27.90,30.57,4.87,27.30,1019.18,2027.03,2188.13,2432.81,2638.81,350.24,348.03,25.19,0000 0000 0000 0000 000000
2015-01-18 05:05:23,0.22,3.59,0.00,23.67,27.90,30.58,4.83,27.47,1019.14,2027.03,2186.42,2431.61,2637.46,350.36,347.95,25.22,0000 0000 0000 0000 000000
2015-01-18 05:10:25,0.22,3.60,0.00,23.68,27.90,30.57,4.82,27.40,1019.09,2027.03,2184.66,2430.46,2636.08,350.48,348.18,25.25,0000 0000 0000 0000 000000
2015-01-18 05:15:26,0.23,3.61,0.00,23.66,27.90,30.56,4.82,27.43,1019.07,2027.02,2182.86,2429.19,2634.68,350.31,347.96,25.28,0000 0000 0000 0000 000000
2015-01-18 05:20:27,0.23,3.61,0.00,23.67,27.90,30.55,4.81,27.32,1019.07,2027.02,2181.08,2427.87,2633.41,350.24,347.87,25.31,0000 0000 0000 0000 000000
2015-01-18 05:25:28,0.23,3.62,0.00,23.65,27.90,30.56,4.77,27.33,1019.06,2027.01,2179.35,2426.56,2631.98,349.82,347.71,25.33,0000 0000 0000 0000 000000
2015-01-18 05:30:30,0.22,3.63,0.00,23.68,27.90,30.55,4.78,27.19,1019.08,2027.01,2177.71,2425.44,2630.70,349.96,347.80,25.36,0000 0000 0000 0000 000000
2015-01-18 05:35:31,0.20,3.63,0.00,23.67,27.90,30.59,4.78,27.23,1019.13,2027.01,2176.02,2424.18,2629.39,349.81,347.57,25.39,0000 0000 0000 0000 000000
2015-01-18 05:40:32,0.21,3.64,0.00,23.65,27.90,30.57,4.77,27.20,1019.40,2027.00,2174.40,2422.93,2628.02,349.54,347.38,25.42,0000 0000 0000 0000 000000
2015-01-18 05:45:33,0.22,3.64,0.00,23.68,27.90,30.56,4.75,27.21,1019.48,2027.01,2172.90,2421.77,2626.75,349.58,347.71,25.45,0000 0000 0000 0000 000000
2015-01-18 05:50:35,0.21,3.65,0.00,23.66,27.90,30.55,4.83,27.28,1019.23,2027.00,2171.35,2420.63,2625.47,350.27,348.02,25.48,0000 0000 0000 0000 000000
2015-01-18 05:55:36,0.21,3.66,0.00,23.64,27.90,30.54,4.77,27.14,1019.10,2027.00,2169.74,2419.47,2624.22,349.40,347.26,25.51,0000 0000 0000 0000 000000
2015-01-18 06:00:37,0.18,3.66,0.00,23.67,27.90,30.54,4.79,27.27,1019.13,2027.01,2168.26,2418.37,2623.07,349.86,347.66,25.54,0000 0000 0000 0000 000000
2015-01-18 06:05:39,0.22,3.67,0.00,23.69,27.90,30.55,4.82,27.39,1019.18,2027.01,2166.54,2417.15,2621.88,349.96,347.71,25.57,0000 0000 0000 0000 000000
2015-01-18 06:10:40,0.19,3.68,0.00,23.68,27.90,30.55,4.77,27.21,1019.23,2027.00,2164.95,2416.00,2620.67,349.34,347.34,25.60,0000 0000 0000 0000 000000
2015-01-18 06:15:41,0.21,3.68,0.00,23.66,27.90,30.57,4.73,27.12,1019.49,2027.00,2163.63,2414.89,2619.51,349.35,347.33,25.63,0000 0000 0000 0000 000000
2015-01-18 06:20:42,0.20,3.69,0.00,23.64,27.90,30.56,4.78,27.24,1019.32,2027.00,2162.11,2413.76,2618.27,350.14,347.95,25.66,0000 0000 0000 0000 000000
2015-01-18 06:25:44,0.20,3.69,0.00,23.64,27.90,30.58,4.75,27.27,1019.37,2027.00,2160.68,2412.71,2617.07,350.34,348.15,25.69,0000 0000 0000 0000 000000
2015-01-18 06:30:45,0.19,3.70,0.00,23.68,27.90,30.59,4.79,27.30,1019.25,2027.00,2159.20,2411.62,2615.90,350.08,348.06,25.72,0000 0000 0000 0000 000000
2015-01-18 06:35:46,0.22,3.70,0.00,23.68,27.90,30.56,4.80,27.36,1019.11,2027.00,2157.68,2410.53,2614.69,349.72,347.44,25.74,0000 0000 0000 0000 000000
2015-01-18 06:40:48,0.19,3.71,0.00,23.66,27.90,30.55,4.78,27.46,1019.08,2027.00,2156.17,2409.43,2613.47,349.93,347.75,25.77,0000 0000 0000 0000 000000
2015-01-18 06:45:49,0.20,3.72,0.00,23.69,27.90,30.58,4.77,27.32,1019.10,2027.00,2154.66,2408.31,2612.37,350.05,347.75,25.80,0000 0000 0000 0000 000000
2015-01-18 06:50:51,0.18,3.72,0.00,23.66,27.90,30.55,4.71,27.18,1019.08,2027.00,2153.26,2407.25,2611.20,349.55,347.31,25.83,0000 0000 0000 0000 000000
2015-01-18 06:55:52,0.21,3.73,0.00,23.66,27.90,30.55,4.78,27.35,1019.06,2027.00,2151.75,2406.10,2609.96,349.96,347.62,25.86,0000 0000 0000 0000 000000
2015-01-18 07:00:53,0.19,3.74,0.00,23.61,27.90,30.57,4.76,27.34,1019.06,2027.00,2150.27,2405.02,2608.78,349.57,347.07,25.89,0000 0000 0000 0000 000000
2015-01-18 07:05:54,0.24,3.74,0.00,23.65,27.90,30.58,4.80,27.28,1019.07,2027.00,2148.68,2403.82,2607.55,350.39,348.09,25.92,0000 0000 0000 0000 000000
2015-01-18 07:10:55,0.21,3.75,0.00,23.66,27.90,30.58,4.73,27.24,1019.08,2027.00,2147.05,2402.67,2606.27,349.58,347.35,25.95,0000 0000 0000 0000 000000
2015-01-18 07:15:57,0.21,3.75,0.00,23.66,27.90,30.57,4.79,27.38,1019.09,2027.00,2145.52,2401.55,2605.06,349.97,347.72,25.98,0000 0000 0000 0000 000000
2015-01-18 07:20:58,0.19,3.76,0.00,23.67,27.90,30.57,4.80,27.28,1019.16,2027.00,2143.98,2400.46,2603.84,350.27,347.99,26.01,0000 0000 0000 0000 000000
2015-01-18 07:26:00,0.23,3.77,0.00,23.65,27.90,30.55,4.70,27.24,1019.28,2027.00,2142.30,2399.22,2602.50,348.86,346.71,26.04,0000 0000 0000 0000 000000
2015-01-18 07:31:01,0.24,3.77,0.00,23.67,27.90,30.54,4.74,27.40,1019.44,2027.00,2140.60,2397.89,2601.14,349.86,347.73,26.07,0000 0000 0000 0000 000000
2015-01-18 07:36:02,0.25,3.78,0.00,23.66,27.90,30.55,4.78,27.37,1019.36,2027.00,2138.87,2396.61,2599.74,349.92,347.72,26.10,0000 0000 0000 0000 000000
2015-01-18 07:41:03,0.23,3.79,0.00,23.64,27.90,30.57,4.78,27.30,1019.33,2026.99,2137.01,2395.31,2598.28,350.18,348.14,26.13,0000 0000 0000 0000 000000
2015-01-18 07:46:04,0.22,3.80,0.00,23.66,27.90,30.57,4.80,27.28,1019.29,2026.99,2135.42,2393.98,2596.87,349.76,347.60,26.15,0000 0000 0000 0000 000000
2015-01-18 07:51:05,0.25,3.80,0.00,23.69,27.90,30.55,4.83,27.38,1019.29,2026.99,2133.75,2392.72,2595.54,350.22,347.97,26.18,0000 0000 0000 0000 000000
2015-01-18 07:56:06,0.22,3.81,0.00,23.65,27.90,30.57,4.84,27.48,1019.22,2026.99,2132.03,2391.49,2594.21,350.18,348.00,26.21,0000 0000 0000 0000 000000
2015-01-18 08:01:08,0.24,3.82,0.00,23.64,27.90,30.55,4.82,27.34,1019.22,2026.99,2130.23,2390.16,2592.78,350.12,347.99,26.24,0000 0000 0000 0000 000000
2015-01-18 08:06:09,0.25,3.82,0.00,23.64,27.90,30.54,4.80,27.30,1019.23,2026.99,2128.51,2388.78,2591.34,349.94,347.75,26.27,0000 0000 0000 0000 000000
2015-01-18 08:11:10,0.24,3.83,0.00,23.66,27.90,30.54,4.77,27.43,1019.23,2026.99,2126.74,2387.55,2589.95,350.45,348.27,26.30,0000 0000 0000 0000 000000
2015-01-18 08:16:11,0.24,3.84,0.00,23.68,27.90,30.56,4.80,27.34,1019.28,2026.99,2125.00,2386.28,2588.55,349.88,347.69,26.33,0000 0000 0000 0000 000000
2015-01-18 08:21:13,0.24,3.85,0.00,23.64,27.90,30.56,4.81,27.41,1019.48,2026.99,2123.22,2384.90,2587.12,350.07,347.99,26.36,0000 0000 0000 0000 000000
2015-01-18 08:26:14,0.26,3.85,0.00,23.63,27.90,30.54,4.80,27.19,1019.54,2026.98,2121.46,2383.62,2585.68,349.98,347.83,26.39,0000 0000 0000 0000 000000
2015-01-18 08:31:15,0.23,3.86,0.00,23.67,27.91,30.53,4.83,27.41,1019.55,2026.98,2119.62,2382.30,2584.33,350.17,348.23,26.42,0000 0000 0000 0000 000000
2015-01-18 08:36:16,0.25,3.87,0.00,23.62,27.92,30.54,4.77,27.31,1019.55,2026.97,2117.81,2380.89,2582.80,349.77,347.78,26.45,0000 0000 0000 0000 000000
2015-01-18 08:41:17,0.26,3.88,0.00,23.65,27.92,30.59,4.78,27.44,1019.55,2026.97,2115.97,2379.56,2581.37,349.86,347.80,26.48,0000 0000 0000 0000 000000
2015-01-18 08:46:19,0.22,3.88,0.00,23.65,27.92,30.56,4.70,27.27,1019.55,2026.97,2114.33,2378.26,2579.95,349.96,347.76,26.51,0000 0000 0000 0000 000000
2015-01-18 08:51:20,0.25,3.89,0.00,23.66,27.92,30.58,4.77,27.27,1019.55,2026.95,2112.56,2376.94,2578.55,349.92,347.83,26.54,0000 0000 0000 0000 000000
2015-01-18 08:56:21,0.26,3.90,0.00,23.68,27.92,30.56,4.83,27.52,1019.55,2026.95,2110.82,2375.56,2577.04,350.03,347.93,26.56,0000 0000 0000 0000 000000
2015-01-18 09:01:23,0.25,3.90,0.00,23.63,27.92,30.56,4.79,27.42,1019.55,2026.97,2108.99,2374.19,2575.56,349.98,347.88,26.59,0000 0000 0000 0000 000000
2015-01-18 09:06:23,0.23,3.91,0.00,23.58,27.92,30.58,4.80,27.34,1019.55,2026.93,2107.20,2372.80,2574.15,349.82,347.92,26.62,0000 0000 0000 0000 000000
2015-01-18 09:11:25,0.26,3.92,0.00,23.60,27.92,30.60,4.75,27.48,1019.55,2026.94,2105.42,2371.48,2572.66,349.70,347.42,26.65,0000 0000 0000 0000 000000
2015-01-18 09:16:26,0.24,3.93,0.00,23.59,27.92,30.60,4.83,27.28,1019.56,2026.91,2103.61,2370.09,2571.20,350.13,348.24,26.68,0000 0000 0000 0000 000000
2015-01-18 09:21:27,0.25,3.93,0.00,23.59,27.93,30.59,4.81,27.47,1019.56,2026.89,2101.78,2368.77,2569.74,350.47,348.47,26.71,0000 0000 0000 0000 000000
2015-01-18 09:26:29,0.25,3.94,0.00,23.61,27.94,30.57,4.80,27.43,1019.57,2026.79,2099.91,2367.41,2568.24,349.67,347.71,26.74,0000 0000 0000 0000 000000
2015-01-18 09:31:30,0.23,3.95,0.00,23.59,27.94,30.60,4.74,27.42,1019.56,2026.71,2098.02,2366.17,2566.74,349.61,347.73,26.77,0000 0000 0000 0000 000000
2015-01-18 09:36:31,0.23,3.96,0.00,23.60,27.95,30.59,4.83,27.53,1019.59,2026.73,2096.34,2364.83,2565.31,350.32,348.33,26.80,0000 0000 0000 0000 000000
2015-01-18 09:41:33,0.26,3.96,0.00,23.60,27.95,30.61,4.86,27.64,1019.59,2026.53,2094.47,2363.48,2563.74,350.31,348.36,26.83,0000 0000 0000 0000 000000
2015-01-18 09:46:34,0.22,3.97,0.00,23.62,27.95,30.60,4.79,27.48,1019.59,2026.61,2092.73,2362.16,2562.43,350.27,348.27,26.86,0000 0000 0000 0000 000000
2015-01-18 09:51:35,0.27,3.98,0.00,23.60,27.95,30.61,4.77,27.53,1019.70,2026.48,2090.92,2360.80,2560.97,349.53,347.57,26.89,0000 0000 0000 0000 000000
2015-01-18 09:56:37,0.22,3.98,0.00,23.59,27.95,30.61,4.83,27.43,1019.91,2026.44,2089.28,2359.60,2559.64,349.91,347.94,26.92,0000 0000 0000 0000 000000
2015-01-18 10:01:39,0.23,3.99,0.00,23.60,27.95,30.60,4.79,27.53,1020.02,2026.49,2087.65,2358.42,2558.56,350.07,348.33,26.95,0000 0000 0000 0000 000000
2015-01-18 10:06:40,0.17,4.00,0.00,23.59,27.95,30.63,4.77,27.48,1020.03,2026.37,2086.03,2357.20,2557.30,349.82,347.79,26.97,0000 0000 0000 0000 000000
2015-01-18 10:11:42,0.18,4.00,0.00,23.61,27.95,30.61,4.84,27.43,1020.03,2026.22,2084.51,2355.98,2555.99,350.38,348.52,27.00,0000 0000 0000 0000 000000
2015-01-18 10:16:43,0.24,4.01,0.00,23.60,27.96,30.61,4.81,27.51,1020.02,2026.14,2082.90,2354.82,2554.67,350.36,348.53,27.03,0000 0000 0000 0000 000000
2015-01-18 10:21:44,0.24,4.01,0.00,23.61,27.97,30.63,4.80,27.46,1020.00,2026.18,2081.30,2353.67,2553.49,350.02,348.10,27.06,0000 0000 0000 0000 000000
2015-01-18 10:26:46,0.19,4.02,0.00,23.57,27.97,30.63,4.76,27.64,1020.00,2026.10,2079.70,2352.52,2552.27,349.74,347.95,27.09,0000 0000 0000 0000 000000
2015-01-18 10:31:47,0.22,4.03,0.00,23.56,27.97,30.63,4.77,27.55,1019.99,2026.04,2078.04,2351.29,2550.89,349.89,348.08,27.12,0000 0000 0000 0000 000000
2015-01-18 10:36:48,0.24,4.03,0.00,23.55,27.97,30.67,4.81,27.57,1019.87,2026.06,2076.42,2350.12,2549.63,349.88,348.03,27.15,0000 0000 0000 0000 000000
2015-01-18 10:41:50,0.24,4.04,0.00,23.55,27.97,30.65,4.73,27.61,1019.90,2026.03,2074.73,2348.81,2548.33,350.02,348.05,27.18,0000 0000 0000 0000 000000
2015-01-18 10:46:51,0.23,4.05,0.00,23.54,27.97,30.67,4.79,27.54,1019.99,2026.05,2073.13,2347.63,2547.03,349.69,347.94,27.21,0000 0000 0000 0000 000000
2015-01-18 10:51:52,0.23,4.06,0.00,23.52,27.97,30.68,4.78,27.37,1020.01,2026.02,2071.50,2346.42,2545.69,350.12,348.36,27.24,0000 0000 0000 0000 000000
2015-01-18 10:56:53,0.24,4.06,0.00,23.53,27.97,30.69,4.87,27.52,1019.97,2026.03,2069.74,2345.13,2544.41,350.10,348.45,27.27,0000 0000 0000 0000 000000
2015-01-18 11:01:55,0.25,4.07,0.00,23.54,27.97,30.70,4.82,27.62,1020.00,2026.01,2068.06,2343.84,2542.96,350.24,348.25,27.30,0000 0000 0000 0000 000000
2015-01-18 11:06:56,0.25,4.08,0.00,23.52,27.98,30.69,4.74,27.50,1019.87,2026.01,2066.40,2342.57,2541.59,349.87,347.95,27.33,0000 0000 0000 0000 000000
2015-01-18 11:11:57,0.25,4.09,0.00,23.48,27.98,30.74,4.78,27.57,1019.72,2026.04,2064.59,2341.25,2540.13,349.68,347.86,27.36,0000 0000 0000 0000 000000
2015-01-18 11:16:58,0.29,4.09,0.00,23.51,27.99,30.70,4.69,27.51,1019.71,2026.03,2062.65,2339.74,2538.56,349.22,347.31,27.38,0000 0000 0000 0000 000000
2015-01-18 11:21:59,0.29,4.10,0.00,23.50,27.99,30.71,4.78,27.60,1019.65,2026.01,2060.64,2338.21,2536.83,349.88,348.13,27.41,0000 0000 0000 0000 000000
2015-01-18 11:27:01,0.31,4.11,0.00,23.49,28.00,30.71,4.81,27.56,1019.61,2026.02,2058.53,2336.61,2535.15,349.76,347.89,27.44,0000 0000 0000 0000 000000
2015-01-18 11:32:02,0.32,4.12,0.00,23.47,28.00,30.74,4.80,27.63,1019.57,2026.02,2056.42,2334.92,2533.43,350.14,348.15,27.47,0000 0000 0000 0000 000000
2015-01-18 11:37:03,0.32,4.13,0.00,23.47,28.00,30.75,4.78,27.64,1019.56,2026.01,2054.26,2333.25,2531.60,350.28,348.45,27.50,0000 0000 0000 0000 000000
2015-01-18 11:42:05,0.34,4.14,0.00,23.48,28.00,30.76,4.82,27.60,1019.56,2026.00,2051.98,2331.51,2529.72,350.00,348.30,27.53,0000 0000 0000 0000 000000
2015-01-18 11:47:06,0.28,4.15,0.00,23.44,28.00,30.77,4.87,27.82,1019.56,2026.00,2049.99,2329.95,2528.13,350.28,348.63,27.56,0000 0000 0000 0000 000000
2015-01-18 11:52:08,0.32,4.16,0.00,23.42,28.00,30.77,4.80,27.77,1019.57,2026.00,2047.83,2328.36,2526.34,349.85,348.15,27.59,0000 0000 0000 0000 000000
2015-01-18 11:57:09,0.31,4.17,0.00,23.43,28.00,30.80,4.83,27.76,1019.57,2026.00,2045.99,2326.68,2524.54,350.66,348.82,27.62,0000 0000 0000 0000 000000
2015-01-18 12:02:10,0.33,4.18,0.00,23.41,28.00,30.83,4.82,27.79,1019.56,2026.00,2043.77,2324.92,2522.67,350.47,348.44,27.65,0000 0000 0000 0000 000000
2015-01-18 12:07:12,0.37,4.19,0.00,23.39,28.00,30.89,4.75,27.70,1019.56,2026.00,2041.35,2323.09,2520.66,349.43,347.68,27.68,0000 0000 0000 0000 000000
2015-01-18 12:12:13,0.36,4.20,0.00,23.35,28.00,30.82,4.88,27.62,1019.55,2026.00,2038.90,2321.13,2518.60,350.21,348.26,27.71,0000 0000 0000 0000 000000
2015-01-18 12:17:15,0.37,4.21,0.00,23.34,28.00,30.87,4.79,27.72,1019.55,2026.00,2036.36,2319.22,2516.52,349.58,347.84,27.74,0000 0000 0000 0000 000000
2015-01-18 12:22:16,0.38,4.22,0.00,23.34,28.00,30.92,4.75,27.69,1019.55,2026.00,2033.87,2317.27,2514.48,349.44,347.73,27.77,0000 0000 0000 0000 000000
2015-01-18 12:27:17,0.36,4.23,0.00,23.29,28.00,30.96,4.80,27.81,1019.54,2026.00,2031.40,2315.38,2512.50,349.51,347.86,27.80,0000 0000 0000 0000 000000
2015-01-18 12:32:19,0.35,4.24,0.00,23.26,28.00,30.97,4.81,27.83,1019.49,2026.00,2029.09,2313.65,2510.69,350.21,348.56,27.82,0000 0000 0000 0000 000000
2015-01-18 12:37:21,0.32,4.25,0.00,23.22,28.00,30.99,4.79,27.99,1019.32,2026.00,2026.87,2311.99,2508.89,349.53,347.91,27.85,0000 0000 0000 0000 000000
2015-01-18 12:42:22,0.31,4.26,0.00,23.21,28.00,31.04,4.76,27.86,1019.29,2026.00,2024.70,2310.39,2507.19,349.76,348.12,27.88,0000 0000 0000 0000 000000
2015-01-18 12:47:23,0.30,4.27,0.00,23.21,28.00,31.09,4.78,27.93,1019.40,2026.00,2022.86,2308.89,2505.58,349.45,347.78,27.91,0000 0000 0000 0000 000000
2015-01-18 12:52:25,0.30,4.28,0.00,23.13,28.00,31.14,4.83,27.88,1019.43,2026.00,2020.91,2307.48,2503.94,350.62,348.92,27.94,0000 0000 0000 0000 000000
2015-01-18 12:57:26,0.28,4.29,0.00,23.08,27.98,31.10,4.85,27.82,1019.50,2026.00,2018.95,2305.97,2502.45,349.82,348.46,27.97,0000 0000 0000 0000 000000
2015-01-18 13:02:27,0.29,4.30,0.00,23.03,27.97,31.13,4.82,27.82,1019.55,2026.00,2016.98,2304.56,2500.85,349.68,348.29,28.00,0000 0000 0000 0000 000000